sat.trackr.live / text

‹ back to catalog

HYDRA-3

NORAD 69022 · 2026-100AU

PAYLOAD ACTIVE UNKNOWN

§ Identity

Operator
Country
SPN
Launch date
2026-05-03
Launch site
AFWTR
Launch vehicle
Mass (kg)
RCS (m²)

External: N2YO · Heavens-Above · Gunter

§ Orbital elements

Epoch: 2026-09-19T10:11:42.481536Z

Period
94.69 min
Inclination
97.3889°
Eccentricity
0.0005871
Mean motion
15.20693019 rev/d
Perigee alt
499.7 km
Apogee alt
507.8 km
Semi-major
6,881.9 km
B*
1.6754e-4
RAAN
158.3959°
Arg perigee
40.8707°
Mean anomaly
319.2968°
Rev number
2,112

§ Raw data

HYDRA-31 69022U 26100AU  26262.42479724  .00003615  00000+0  16754-3 0  99952 69022  97.3889 158.3959 0005871  40.8707 319.2968 15.20693019 21122

JSON: /api/v1/satellites/69022 · /tle

For live sub-satellite position, see the globe view (requires WebGL).

§ Visibility from observer

Set your observer location to see the next 7 days of passes ≥ 10°. The values pass through the URL so the page stays shareable.

No JS? Fill the form by hand. The geolocation button needs JavaScript.